User: anonymous
Location: Vancouver
(49.2500°N, 123.1330°W)
Time: 20:11:51
(UTC-07:00)
Language:

Cosmos 1408 Rocket - Orbit

View from above orbital plane
View from above orbital plane
View from above satellite
View from above satellite

Ground track
Ground track

The orbit data is extracted from the following two-line orbital elements,

1 13553U 82092B   14294.81381808  .00000898  00000-0  10564-3 0   495
2 13553 082.5707 057.0053 0021500 011.4011 100.8325 14.83631111733274
Epoch (UTC): 21 October 2014 19:31:53
Eccentricity: 0.0021500
inclination: 82.5707°
perigee height: 603 km
apogee height: 633 km
right ascension of ascending node: 57.0053°
argument of perigee: 11.4011°
revolutions per day: 14.83631111
mean anomaly at epoch: 100.8325°
orbit number at epoch: 73327

The dashed part of the orbit path shows where the satellite is in the earth's shadow,  

DLR